Theta_e
315 313 312 311 310 310 311 310 308 309 307 300 300 303 305 306 307 312 311 310 308 308 308 310 310 310 311 309 309 306 308 306 308 307 309 305 307 308 308 308 309 310 309 308 308
318 315 313 312 310 310 310 310 309 303 303 300 300 303 305 306 310 311 311 309 308 308 312 309 308 309 308 310 308 307 307 308 306 306 307 305 306 307 310 309 309 309 307 306 311
320 319 316 313 311 310 311 310 308 305 299 298 300 304 306 307 312 311 310 308 307 308 311 310 308 309 310 309 309 308 309 307 309 309 305 306 309 307 308 309 308 308 308 305 309
320 320 319 317 313 311 311 311 309 307 300 298 300 304 307 311 311 310 308 308 308 310 309 308 308 310 309 309 308 309 309 308 308 309 308 308 308 309 307 307 308 306 304 308 306
320 320 320 319 318 314 312 311 310 309 303 298 300 305 309 309 308 310 308 308 308 310 308 307 309 309 310 308 309 309 310 309 309 309 309 309 309 308 308 307 305 304 306 305 305
318 319 320 318 319 318 316 312 311 309 307 299 301 305 311 305 309 308 308 309 310 309 308 308 308 308 308 310 309 308 309 309 309 310 309 309 308 309 307 305 306 303 305 304 305
313 317 320 319 319 319 318 315 313 311 307 300 301 306 308 304 308 308 309 309 309 309 308 309 309 309 308 310 308 309 310 310 310 310 310 307 306 308 307 305 306 304 303 303 304
310 311 317 319 319 318 319 317 315 313 303 300 302 306 303 307 308 308 310 310 310 310 309 310 310 308 309 307 309 311 308 307 308 310 309 306 304 307 305 306 306 305 303 302 303
307 310 311 316 318 318 319 317 316 313 301 300 305 307 304 306 307 308 311 310 309 310 311 311 309 308 308 308 307 306 305 308 311 309 310 307 304 305 306 306 307 305 303 301 301
305 308 309 312 317 318 318 317 315 307 303 303 303 303 303 306 307 308 311 310 308 308 310 310 306 308 307 305 306 307 309 311 310 310 310 310 309 307 307 306 307 305 304 301 301
303 306 308 310 313 315 316 315 304 305 303 302 302 302 306 307 308 308 311 311 309 309 308 309 308 308 308 307 307 306 308 311 308 309 310 308 308 308 305 306 307 306 305 302 301
303 304 306 308 311 314 315 310 308 306 314 306 302 303 306 307 307 308 310 311 310 309 306 307 309 307 306 309 308 309 310 309 308 309 308 302 305 305 304 305 308 307 305 304 301
303 302 303 306 309 314 313 309 305 304 310 309 304 304 305 307 308 307 309 309 311 309 306 307 307 306 309 310 310 308 308 305 304 308 306 305 305 302 306 304 306 305 305 304 301
302 301 302 305 311 312 310 309 302 304 311 315 305 305 306 307 307 307 309 310 310 310 306 306 307 308 308 310 309 311 305 308 308 304 303 304 306 302 304 306 307 306 304 302 299
301 301 301 304 309 310 313 309 304 310 306 309 304 304 305 308 307 309 307 308 310 309 307 309 307 308 309 309 306 309 306 307 308 307 307 304 303 302 306 306 305 305 304 300 297
300 300 301 302 303 309 311 301 309 314 315 307 303 306 307 307 307 307 309 307 307 309 307 308 306 307 307 307 308 306 308 307 305 304 305 304 303 302 302 306 306 305 304 301 297
299 299 300 303 306 306 303 308 311 311 306 305 304 306 307 307 308 309 310 310 309 308 309 309 309 306 306 308 308 307 306 309 307 306 308 302 302 302 302 302 304 303 305 302 296
298 299 300 301 303 303 303 309 313 301 303 304 305 306 307 308 309 310 311 311 310 307 307 310 310 307 305 307 309 308 306 309 307 309 307 303 306 307 301 302 299 300 303 300 294
298 299 299 301 301 302 305 311 306 301 305 306 306 305 305 307 308 309 310 311 311 307 311 309 310 305 305 305 306 309 309 306 307 297 304 305 303 301 300 304 303 302 301 300 294
298 299 299 299 300 302 304 311 303 303 305 305 309 305 303 306 308 309 309 308 309 308 308 309 311 305 305 305 305 306 305 307 306 308 307 304 303 305 304 303 302 300 300 298 294
297 298 299 299 301 301 305 306 304 303 304 306 307 302 305 305 306 308 310 308 307 307 309 310 311 306 305 305 306 306 305 304 305 306 309 306 305 301 302 302 302 300 301 299 296
297 297 298 299 301 301 304 304 304 306 306 305 306 307 306 304 307 308 310 309 306 307 310 310 311 311 307 303 303 304 305 304 307 307 305 306 306 302 301 300 301 300 300 297 296
297 296 298 300 302 301 302 302 305 306 305 305 306 307 305 304 307 308 307 305 304 307 309 307 312 318 315 306 300 304 304 304 304 304 306 309 308 301 300 301 299 299 297 296 293
295 297 296 297 300 301 301 305 305 305 306 304 305 306 305 306 303 306 307 304 304 306 311 312 309 314 320 312 306 305 304 305 306 307 306 306 307 306 303 300 299 298 298 296 295
294 291 293 291 299 300 300 303 306 307 306 307 305 308 307 305 306 306 305 304 305 307 311 310 313 310 310 307 303 304 305 306 306 306 307 308 304 305 303 302 298 297 297 296 296
294 293 296 288 295 298 299 300 303 303 306 307 310 308 309 308 309 306 305 305 308 306 306 307 312 304 313 306 302 303 303 303 305 306 306 305 304 304 303 300 298 298 299 298 298
293 293 294 295 297 294 295 296 298 300 304 306 306 309 309 309 306 306 307 306 308 308 307 304 304 308 311 301 309 316 313 308 303 303 305 307 308 304 303 300 299 298 300 301 299
Wind_Speed
8 9 10 10 10 12 12 12 10 12 14 12 10 9 9 10 6 1 3 2 1 5 3 0 2 3 2 3 3 3 4 2 5 7 3 3 3 1 1 4 2 2 3 3 5
9 9 10 10 10 11 12 13 13 10 11 12 10 9 10 10 6 3 2 2 3 1 1 4 3 2 3 2 3 4 3 6 3 3 4 5 4 6 3 2 3 1 4 6 4
10 10 11 11 10 11 13 13 15 13 9 10 10 10 11 6 3 1 2 2 2 2 2 2 1 2 2 2 2 2 4 4 2 1 6 5 3 4 6 5 6 7 6 5 3
10 11 11 11 11 11 12 14 14 15 12 8 9 11 8 2 2 1 2 2 0 3 1 2 2 3 2 2 1 3 2 2 4 1 3 5 4 3 7 5 5 7 6 2 3
12 10 12 12 13 12 13 13 14 15 13 9 7 10 3 2 4 1 2 1 2 3 2 2 3 4 4 3 2 3 2 2 2 3 3 3 3 6 7 5 5 5 6 5 4
9 12 11 13 14 13 13 14 13 14 14 9 8 7 2 2 2 0 1 1 2 3 2 3 3 3 5 2 2 3 3 2 2 2 2 2 2 1 5 7 6 7 9 6 4
10 10 13 12 13 13 13 14 12 13 13 8 6 7 2 7 1 0 0 0 2 3 2 2 4 2 3 4 3 5 3 3 3 2 1 3 5 10 3 7 9 10 8 6 6
13 11 8 12 14 11 15 15 14 12 11 4 3 5 4 3 4 2 1 2 3 4 2 3 6 6 4 4 5 3 3 0 1 4 1 3 9 4 7 9 10 9 7 6 6
14 15 12 11 12 12 15 15 14 11 7 3 2 6 7 3 3 3 3 2 3 5 4 5 4 4 4 5 4 5 2 4 4 7 3 4 7 3 6 8 9 8 8 7 6
15 14 15 14 8 10 14 14 13 9 1 3 2 5 2 3 1 3 4 5 3 4 3 4 5 3 3 3 5 6 4 4 5 4 4 3 14 11 6 8 11 8 8 8 6
11 13 15 12 11 11 13 8 3 2 3 6 3 5 3 0 1 2 4 5 3 4 5 1 3 8 11 6 2 5 4 3 3 2 3 6 11 16 8 7 11 9 8 8 7
11 13 14 11 11 12 11 3 3 2 5 8 4 5 3 7 1 4 7 5 4 5 4 4 9 6 3 6 4 3 3 4 3 1 2 4 14 16 8 9 15 12 9 9 4
10 13 14 13 13 15 8 5 4 3 1 5 5 5 4 9 5 6 8 5 4 5 6 6 3 6 7 5 6 3 4 3 2 1 2 6 9 6 3 3 4 7 7 7 9
10 8 13 11 5 10 5 9 6 4 2 5 4 4 5 5 3 5 13 5 3 10 7 5 1 5 3 5 5 4 6 4 4 2 3 2 5 6 3 6 6 8 9 9 9
13 11 12 8 5 6 6 16 9 2 2 2 3 1 2 8 6 2 3 2 7 7 6 5 7 4 3 4 7 4 4 5 3 3 2 1 0 8 4 7 7 9 10 9 9
13 12 10 10 11 7 11 22 5 3 10 4 4 5 6 3 4 2 1 2 3 4 3 1 0 3 3 2 1 7 5 6 4 2 2 3 5 6 5 7 2 5 10 10 9
12 14 11 9 3 3 23 9 3 6 2 5 5 5 3 4 4 4 5 5 6 4 4 1 3 1 3 5 4 3 5 2 3 2 5 3 1 10 6 7 5 10 12 9 8
12 13 13 13 13 6 5 2 8 5 9 3 4 6 6 6 3 5 5 9 9 1 3 7 4 9 5 5 6 5 5 5 7 4 3 3 7 7 5 3 6 6 9 9 9
11 13 9 12 13 8 3 9 11 8 9 11 5 5 5 4 5 5 8 11 10 9 5 6 3 1 2 2 4 6 6 2 6 3 3 4 7 10 6 4 3 6 9 13 10
10 7 10 16 14 10 6 23 7 7 8 4 11 6 10 9 8 9 10 7 7 15 4 3 3 2 2 2 0 4 2 2 2 3 4 4 5 7 4 9 7 8 11 10 9
6 2 7 16 18 4 11 11 12 5 4 7 9 5 6 8 7 6 5 3 8 8 13 3 2 2 1 7 8 3 3 3 2 4 5 2 6 7 7 10 15 12 13 15 15
3 3 4 18 7 3 12 8 2 7 1 6 5 4 8 9 6 6 11 5 3 7 11 6 2 5 8 1 1 1 5 6 4 5 3 1 6 3 5 5 8 9 11 8 11
2 2 10 17 9 14 2 10 2 6 7 5 7 4 3 8 5 6 6 3 4 8 11 8 5 4 2 1 4 5 5 4 1 2 7 6 6 1 3 3 7 10 9 8 8
2 3 2 3 4 12 16 11 14 3 4 5 6 5 5 4 3 11 8 2 3 1 8 5 3 10 13 1 4 6 8 16 8 4 5 7 5 5 7 8 7 9 9 12 12
3 5 4 4 10 14 8 5 13 13 11 8 3 12 10 5 4 5 5 4 3 1 4 8 6 9 5 2 2 5 7 15 24 20 10 10 12 11 8 8 8 9 7 9 11
2 2 2 2 4 13 16 17 7 16 4 24 17 26 19 11 15 6 7 4 5 1 4 3 2 3 8 2 4 6 10 11 18 22 19 16 19 10 3 4 6 9 11 13 15
7 3 0 7 4 5 8 16 20 12 9 17 27 9 13 21 5 5 4 7 11 11 6 6 5 3 3 2 4 15 26 18 7 10 18 22 32 2 6 9 8 10 15 19 18
Wind_Direction
326 330 343 347 343 348 347 345 342 344 344 351 359 359 352 342 336 220 205 180 282 308 322 314 142 127 91 79 54 121 68 190 206 159 230 170 138 195 79 119 227 209 175 227 284
312 319 325 339 343 347 346 345 343 348 347 349 356 357 350 342 345 274 209 302 317 301 136 80 92 47 46 72 27 86 122 212 185 184 192 181 167 170 136 195 232 204 267 276 290
302 308 316 319 334 342 344 343 346 344 352 353 356 352 344 345 39 262 190 316 313 191 165 101 119 98 79 49 26 132 177 163 201 239 154 163 164 187 147 239 215 203 228 257 308
295 298 301 310 315 325 337 341 342 346 348 351 358 351 347 18 176 130 338 331 166 155 165 138 118 98 105 158 54 98 56 166 178 338 137 166 133 212 198 227 198 196 215 190 300
275 292 296 307 309 312 319 328 339 341 347 349 359 359 8 25 249 187 324 335 158 156 154 152 143 132 159 139 106 110 161 91 136 124 128 137 208 227 242 224 184 191 222 242 265
306 275 276 292 304 306 314 313 329 336 340 347 358 7 355 266 150 311 311 250 189 173 168 160 179 153 113 92 126 107 106 144 192 187 128 190 239 140 256 168 205 207 229 243 242
331 329 255 278 290 295 302 306 312 333 334 340 6 24 19 244 228 303 184 194 221 178 162 192 137 80 117 99 151 128 77 334 226 212 238 101 276 232 194 175 207 227 236 241 242
318 323 316 274 272 290 296 298 301 314 327 335 353 64 247 288 274 228 164 95 132 183 157 85 152 102 77 115 39 57 50 16 203 154 167 110 268 283 180 174 218 234 242 239 255
304 309 314 306 270 271 288 290 302 305 307 282 109 87 281 314 262 200 160 126 115 119 115 105 70 93 61 94 26 14 203 211 293 200 134 166 270 283 161 203 228 235 239 239 258
285 290 302 306 285 283 271 285 301 299 57 111 105 74 322 301 253 187 156 133 95 110 72 58 56 82 63 108 214 198 205 228 235 207 206 211 261 268 237 212 235 237 243 239 243
271 279 290 305 309 297 271 293 337 283 238 196 192 152 175 204 261 223 151 122 89 66 155 75 125 212 202 181 119 140 167 211 235 186 223 236 266 266 240 216 237 234 238 239 237
267 280 287 269 281 272 238 229 253 149 302 242 236 291 146 150 303 258 170 137 143 184 124 65 238 209 148 172 144 135 148 240 314 157 189 339 281 261 220 224 217 213 226 226 212
281 265 274 288 281 209 205 230 201 164 255 290 212 175 180 156 203 230 162 148 158 166 186 170 254 143 140 165 168 215 185 192 197 35 239 323 291 302 244 227 214 204 200 198 207
290 272 274 296 240 183 194 207 191 188 22 252 218 241 150 140 271 194 195 153 186 192 165 235 178 149 141 189 146 201 191 135 137 86 240 61 275 295 291 279 217 193 190 195 194
288 278 265 266 304 175 202 183 162 245 346 201 182 103 104 177 148 233 231 21 166 180 140 227 168 151 166 207 168 228 122 134 126 115 22 205 300 270 359 276 232 201 201 201 187
279 272 268 282 281 250 182 165 145 101 236 194 146 162 137 226 107 111 119 357 125 119 42 145 207 164 188 81 105 144 78 47 56 72 353 225 166 276 203 214 217 167 201 194 176
274 280 262 252 214 238 158 142 117 197 297 222 182 161 157 153 124 147 167 189 164 120 184 96 191 255 156 90 28 83 106 25 352 359 221 79 145 253 246 223 206 190 196 188 166
279 280 273 247 250 276 166 162 204 205 201 120 102 107 172 148 197 155 124 199 263 101 127 163 237 172 183 194 174 179 176 168 200 197 229 73 235 247 215 242 232 202 176 155 163
291 289 268 255 229 251 228 193 212 181 162 139 117 114 207 202 146 138 180 220 216 189 210 164 222 54 111 133 145 182 206 179 107 31 51 208 281 292 227 229 190 168 161 175 172
284 279 227 242 215 178 216 219 215 186 127 174 175 156 174 182 159 177 170 201 203 197 244 216 106 353 98 122 185 176 173 120 355 157 239 258 274 244 250 220 204 183 192 177 166
277 238 258 213 188 211 220 221 216 257 134 153 190 136 177 174 163 189 199 232 205 181 167 198 92 5 132 208 180 160 211 219 176 173 176 219 255 219 234 198 196 199 191 183 176
238 216 226 177 202 212 228 213 210 191 221 227 138 133 166 163 158 189 201 219 178 145 184 196 142 177 213 213 216 241 218 181 144 218 245 169 270 221 214 220 185 196 190 187 187
223 233 223 190 214 229 257 229 312 208 190 203 179 161 182 159 148 182 200 155 181 162 167 174 206 223 223 18 354 205 198 215 124 86 204 159 252 164 223 202 201 192 190 180 181
149 254 214 233 229 231 235 226 220 252 236 173 174 128 112 161 260 186 192 175 109 291 127 73 182 214 224 90 128 191 204 201 191 203 167 226 267 273 243 225 207 209 196 182 185
213 224 196 208 227 241 261 231 220 214 212 210 215 195 182 160 131 178 163 137 69 180 93 165 225 222 242 208 179 211 228 206 212 221 206 243 224 245 240 227 214 191 170 171 186
228 199 160 227 170 199 222 233 259 238 244 215 228 217 211 206 205 163 128 160 162 254 134 164 229 133 254 250 205 252 246 218 225 232 248 272 270 247 298 131 161 173 170 195 199
192 233 265 266 205 183 208 231 238 250 267 230 226 230 219 222 144 169 177 158 152 154 170 158 145 145 235 28 84 270 238 225 192 213 215 228 241 156 236 229 205 196 190 197 201